GEESAT-3 02 (61012 NORAD) Tracking and Keplerian Element Data

This shows tracking and keplerian element data for the satellite.

Feedback or suggestion? Click here.




ElementValue
Catalog61012
NameGEESAT-3 02
Epoch Orbit554
Epoch Day286.84716316
Epoch Year2024
RAAN65.5629
Inclination49.994
Eccentricity0.0009558
Argument of Perigee45.4703
Mean Anonmoly314.7019
Mean Motion14.92327177
Decay Rate0.00013378
L11 61012U 24159B 24286.84716316 .00013378 00000+0 13145-2 0 9996
L22 61012 49.9940 65.5629 0009558 45.4703 314.7019 14.92327177 5542



Live tracking and technical data element details for GEESAT-3 02 (NORAD 61012). GEESAT-3 02 can be tracked NOW for your location showing map with azimuth and elevation plus other details from your city location.







IsCatalogInMostPopularTable: catalog: 61012, numindb: 7
Update: records affected: 1



GetName: 61012 GEESAT-3 02

Hit Count: updated at: Tue, 03 Dec 2024 03:30:23 GMT